DMSP 5D-2 F13 DEB, 40437

Orbit data source: Space-Track

DMSP 5D-2 F13 DEB, 40437 is space debris in SSO originally from a launch on Fri, 24 Mar 1995 UTC launched from the Air Force Western Test Range (AFWTR). Debris objects in space refer to the collection of defunct objects orbiting the Earth. Examples of debris include non-operational satellites, rocket bodies, and fragments generated from explosions, collisions, or faulty payload assembly.

Loading next visibility...
Identifier
40437, 1995-015AP
Orbit
SSO
Country
Flag of USUS
Related business
Manufacturer
Unknown
Mission
Spacecraft
Bus & Motor
Unknown
Mass
Unknown
Launch date (UTC)
1995-03-24 (31 years ago)
Launch vehicle
Unknown
Launch site
Air Force Western Test Range (AFWTR)
Object type
Payload
Rocket body
Debris
Shape & HBR
Unknown shape, 0.1 m
Radar Cross Section
Small (<0.1 m²)

Expand to show TLE details & history
Last TLE update: 17 hours ago

TLE from 17 hours ago
0 DMSP 5D-2 F13 DEB
1 40437U 95015AP  26127.16848960  .00019299  00000-0  27847-2 0  9998
2 40437  98.6625 204.2053 0014385 170.3231 189.8256 14.76228211584033
Epoch: 2026-05-07T04:02Z
TLE epoch observation values (Epoch: 2026-05-07T04:02:37.501Z)
Latitude
-0.00005°
Longitude
-81.46945°
Altitude
654.199 km
Speed
7.525 km/s
True Right ascension
13h 36m 49s
True Declination
0° 00' 00"
Sunlit
Object was in full shadow at epoch
Visualization orbit readout
Latitude
Unknown
Longitude
Unknown
Altitude
Unknown
Speed
Unknown
Apparent Right ascension
Unknown
Apparent Declination
Unknown
Sunlit
N/A
Visualization observer readout
Local Sidereal Time
04:52:01
Azimuth
Unknown
Elevation
Unknown
Doppler factor
Unknown
Orbital elements
Apogee altitude
648.43 km
Perigee altitude
628.244 km
Semi-major axis
7,016.474 km
Eccentricity
0.00144
Inclination
98.6625°
RAAN
204.2053°
Arg. of periapsis
170.3231°
True anomaly
189.79752°
Mean anomaly
189.8256°
Eccentric anomaly
189.81155°
Mean motion
3.69288 °/min
Orbital period
97.48 mins
BSTAR
0.0027847

Documentation

Showing up to 5 results
|